Station FHPF1 - FHP - Fred Howard Park, FL Image indicating link to RSS feed of recent meteorological observations for station FHPF1


Conditions at FHPF1 as of
(7:54 am EDT)
1154 GMT on 05/21/2024:
     

Click on the graph icon in the table below to see a time series plot of the last five days of that observation.

5-day plot - Wind Direction Wind Direction (WDIR): NE ( 40 deg true )
5-day plot - Wind Speed Wind Speed (WSPD): 6.0 kts
5-day plot - Wind Gust Wind Gust (GST): 7.0 kts
5-day plot - Wave Height Wave Height (WVHT): 42.7 ft
5-day plot - Atmospheric Pressure Atmospheric Pressure (PRES):29.95 in
5-day plot - Air Temperature Air Temperature (ATMP): 72.7 °F
5-day plot - Dew Point Dew Point (DEWP): 66.2 °F
5-day plot - Tide (above MLLW) Tide (above MLLW) (TIDE): 2.99 ft
5-day plot - Wind Speed at 10 Meters Wind Speed at 10 meters (WSPD10M): 5.8 kts
5-day plot - Wind Speed at 20 Meters Wind Speed at 20 meters (WSPD20M): 7.8 kts
5-day plot -  Wind Speed, Wind Gust and Atmospheric Pressure Combined plot of Wind Speed, Gust, and Air Pressure
Previous observations
TIME
(EDT)
5-day plot - Wind Direction
WDIR
 
5-day plot - Wind Speed
WSPD
kts
5-day plot - Wind Gust
GST
kts
5-day plot - Wave Height
WVHT
ft
5-day plot - Dominant Wave Period
DPD
sec
5-day plot - Average Wave Period
APD
sec
5-day plot - Mean Wave Direction
MWD
 
5-day plot - Atmospheric Pressure
PRES
in
5-day plot - Pressure Tendency
PTDY
in
5-day plot - Air Temperature
ATMP
°F
5-day plot - Water Temperature
WTMP
°F
5-day plot - Dew Point
DEWP
°F
5-day plot - Salinity
SAL
psu
5-day plot - Visibility
VIS
nmi
5-day plot - Tide (above MLLW)
TIDE
ft
2024-05-21 07:48 amNNE 5.1 7.0 42.7---29.95- 72.5- 66.2-- 2.95
2024-05-21 07:42 amNNE 5.1 7.0 42.3---29.95- 72.7- 66.4-- 2.89
2024-05-21 07:36 amNNE 7.0 8.9 42.3---29.95- 72.3- 66.4-- 2.85
2024-05-21 07:30 amNNE 6.0 7.0 42.0---29.94- 72.5- 66.4-- 2.79
2024-05-21 07:24 am NE 6.0 8.0 42.0---29.94- 72.5- 65.8-- 2.76
2024-05-21 07:18 am NE 6.0 8.9 41.7---29.94- 72.7- 66.0-- 2.69
2024-05-21 07:12 am NE 6.0 7.0 41.7---29.94- 72.5- 65.8-- 2.66
2024-05-21 07:06 amENE 5.1 7.0 41.3---29.94- 72.5- 66.0-- 2.62
2024-05-21 07:00 am NE 5.1 7.0 41.3---29.93+0.03 72.5- 66.2-- 2.56
2024-05-21 06:54 am NE 4.1 5.1 41.0---29.93- 72.1- 66.0-- 2.53
2024-05-21 06:48 am NE 2.9 5.1 41.0---29.93- 72.1- 66.0-- 2.49
2024-05-21 06:42 amENE 2.9 4.1 40.7---29.93- 72.3- 66.4-- 2.43
2024-05-21 06:36 am NE 2.9 4.1 40.7---29.93- 72.1- 66.0-- 2.40
2024-05-21 06:30 amENE 2.9 5.1 40.7---29.93- 72.1- 65.8-- 2.36
2024-05-21 06:24 amENE 2.9 4.1 40.4---29.93- 72.3- 66.2-- 2.33
2024-05-21 06:18 amENE 2.9 4.1 40.4---29.93- 72.3- 66.0-- 2.30
2024-05-21 06:12 am NE 2.9 5.1 40.0---29.93- 72.1- 65.8-- 2.23
2024-05-21 06:06 am NE 4.1 6.0 40.0---29.92- 72.3- 66.0-- 2.20
2024-05-21 06:00 am NE 4.1 5.1 40.0---29.92+0.01 72.5- 66.2-- 2.17
2024-05-21 05:54 am NE 4.1 5.1 39.7---29.92- 72.5- 66.2-- 2.10
2024-05-21 05:48 am NE 5.1 6.0 39.7---29.92- 72.5- 66.0-- 2.10
2024-05-21 05:42 am NE 5.1 7.0 39.7---29.92- 72.5- 65.8-- 2.07
2024-05-21 05:36 am NE 5.1 6.0 39.7---29.91- 72.7- 66.2-- 2.07
2024-05-21 05:30 am NE 5.1 6.0 39.7---29.92- 72.5- 65.8-- 2.07
2024-05-21 05:24 amNNE 7.0 8.0----29.92- 72.7- 65.7---
2024-05-21 05:18 am NE 7.0 8.9 39.7---29.92- 72.9- 65.8-- 2.07
2024-05-21 05:12 am NE 7.0 8.9 39.4---29.92- 72.9- 65.7-- 2.03
2024-05-21 05:06 am NE 7.0 8.9----29.92- 72.9- 65.7---
2024-05-21 05:00 amNNE 6.0 8.9 39.4---29.91-0.01 73.0- 65.8-- 2.03
2024-05-21 04:54 am NE 6.0 7.0 39.4---29.92- 73.0- 65.7-- 2.03
2024-05-21 04:48 am NE 6.0 8.0 39.4---29.92- 73.2- 65.8-- 2.03
2024-05-21 04:42 am NE 7.0 8.9 39.7---29.92- 73.0- 65.7-- 2.07
2024-05-21 04:36 am NE 7.0 11.1 39.7---29.92- 73.0- 65.5-- 2.10
2024-05-21 04:30 amNNE 8.0 9.9 39.7---29.92- 73.2- 65.5-- 2.10
2024-05-21 04:24 amNNE 9.9 13.0 39.7---29.91- 73.2- 65.3-- 2.13
2024-05-21 04:18 amNNE 9.9 12.0 40.0---29.91- 73.4- 65.5-- 2.17
2024-05-21 04:12 am NE 8.0 11.1 40.0---29.91- 73.4- 65.3-- 2.17
2024-05-21 04:06 amNNE 8.9 12.0 40.0---29.91- 73.6- 65.7-- 2.20
2024-05-21 04:00 amNNE 8.9 11.1 40.0---29.91-0.03 73.6- 65.3-- 2.20
2024-05-21 03:54 am NE 9.9 12.0 40.0---29.91- 73.6- 65.1-- 2.23
2024-05-21 03:48 amNNE 8.9 12.0 40.4---29.91- 73.8- 65.7-- 2.26
2024-05-21 03:42 amNNE 9.9 12.0 40.4---29.91- 73.6- 65.1-- 2.30
2024-05-21 03:36 amNNE 9.9 12.0 40.4---29.90- 73.8- 65.5-- 2.33
2024-05-21 03:30 amNNE 9.9 12.0 40.7---29.90- 73.6- 65.5-- 2.36
2024-05-21 03:24 amNNE 8.9 12.0 40.7---29.90- 73.6- 65.5-- 2.36
2024-05-21 03:18 amNNE 9.9 12.0 40.7---29.90- 73.8- 65.8-- 2.40
2024-05-21 03:12 amNNE 9.9 12.0 40.7---29.90- 73.9- 66.0-- 2.43
2024-05-21 03:06 amNNE 8.0 9.9 41.0---29.90- 74.1- 66.4-- 2.46
2024-05-21 03:00 amNNE 8.9 12.0 41.0---29.91-0.03 74.1- 66.2-- 2.46
2024-05-21 02:54 amNNE 8.9 12.0 41.0---29.91- 74.1- 66.2-- 2.53
2024-05-21 02:48 amNNE 8.9 11.1 41.3---29.91- 74.3- 66.4-- 2.56
2024-05-21 02:42 amNNE 8.9 11.1 41.3---29.91- 74.3- 66.0-- 2.62
2024-05-21 02:36 am NE 8.9 11.1 41.7---29.91- 74.7- 66.4-- 2.66
2024-05-21 02:30 amNNE 8.9 11.1 41.7---29.91- 74.8- 66.6-- 2.69
2024-05-21 02:24 amNNE 8.9 12.0 42.0---29.91- 74.8- 66.6-- 2.76
2024-05-21 02:18 amNNE 9.9 12.0 42.0---29.91- 74.8- 66.4-- 2.79
2024-05-21 02:12 amNNE 8.9 11.1 42.0---29.92- 75.0- 66.6-- 2.82
2024-05-21 02:06 amNNE 8.9 12.0 42.3---29.92- 75.2- 66.7-- 2.85
2024-05-21 02:00 am NE 8.9 12.0 42.3---29.92+0.00 75.2- 66.7-- 2.89
2024-05-21 01:54 am NE 8.0 8.9 42.3---29.92- 75.4- 67.3-- 2.92
2024-05-21 01:48 am NE 8.0 11.1 42.7---29.93- 75.4- 67.1-- 2.99
2024-05-21 01:42 am NE 8.0 9.9 42.7---29.93- 75.6- 67.1-- 2.99
2024-05-21 01:36 amNNE 9.9 12.0 42.7---29.93- 75.7- 67.1-- 3.02
2024-05-21 01:30 amNNE 9.9 13.0 43.0---29.93- 75.7- 67.1-- 3.05
2024-05-21 01:24 amNNE 9.9 13.0 43.0---29.93- 75.9- 67.1-- 3.05
2024-05-21 01:18 am NE 9.9 12.0 43.0---29.93- 76.1- 67.3-- 3.12
2024-05-21 01:12 amNNE 9.9 13.0 43.0---29.93- 76.1- 67.6-- 3.12
2024-05-21 01:06 amNNE 9.9 11.1 43.0---29.93- 76.3- 67.6-- 3.15
2024-05-21 01:00 amNNE 8.0 9.9 43.0---29.93+0.02 76.5- 67.6-- 3.15
2024-05-21 12:54 amNNE 8.9 12.0 43.0---29.93- 76.5- 67.1-- 3.12
2024-05-21 12:48 amNNE 9.9 12.0 43.0---29.93- 76.6- 67.5-- 3.12
2024-05-21 12:42 amNNE 9.9 12.0 43.0---29.93- 76.8- 67.6-- 3.15
2024-05-21 12:36 am NE 9.9 13.0 43.3---29.93- 76.8- 67.6-- 3.18
2024-05-21 12:30 amNNE 11.1 13.0 43.3---29.93- 76.8- 67.5-- 3.18
2024-05-21 12:24 amNNE 11.1 14.0 43.3---29.93- 77.2- 68.0-- 3.22
2024-05-21 12:18 amNNE 11.1 14.0 43.3---29.93- 77.4- 68.0-- 3.22
2024-05-21 12:12 amNNE 11.1 13.0----29.93- 77.5- 68.2---
2024-05-21 12:06 amNNE 12.0 14.0 43.3---29.94- 77.7- 68.2-- 3.25
2024-05-21 12:00 amNNE 12.0 14.0 43.3---29.94+0.04 77.9- 68.9-- 3.25
2024-05-20 11:54 pmNNE 12.0 14.0 43.3---29.94- 78.1- 69.1-- 3.25
2024-05-20 11:48 pmNNE 13.0 14.0 43.6---29.93- 78.3- 68.9-- 3.28
2024-05-20 11:42 pmNNE 12.0 14.0 43.6---29.94- 78.3- 68.9-- 3.28
2024-05-20 11:36 pmNNE 12.0 14.0 43.6---29.94- 78.4- 69.3-- 3.31
2024-05-20 11:30 pmNNE 12.0 14.0 43.6---29.94- 78.4- 69.3-- 3.31
2024-05-20 11:24 pmNNE 11.1 14.0 43.6---29.94- 78.8- 69.3-- 3.35
2024-05-20 11:18 pmNNE 12.0 14.0 43.6---29.94- 79.2- 69.3-- 3.31
2024-05-20 11:12 pmNNE 13.0 14.0 43.6---29.94- 79.7- 69.4-- 3.35
2024-05-20 11:06 pmNNE 13.0 15.0 43.6---29.94- 80.1- 69.6-- 3.35
2024-05-20 11:00 pm N 12.0 19.0 43.6---29.93+0.04 81.7- 73.2-- 3.35
2024-05-20 10:54 pm NW 9.9 12.0 43.6---29.93- 81.9- 73.4-- 3.31
2024-05-20 10:48 pmNNW 8.9 11.1 43.6---29.93- 81.9- 73.8-- 3.28
2024-05-20 10:42 pmWNW 9.9 12.0 43.3---29.93- 81.5- 73.4-- 3.25
2024-05-20 10:36 pm NW 9.9 12.0 43.3---29.93- 81.5- 73.2-- 3.22
2024-05-20 10:30 pm NW 9.9 12.0 43.3---29.93- 81.7- 73.4-- 3.18
2024-05-20 10:24 pmNNW 9.9 14.0 43.0---29.92- 81.7- 73.6-- 3.12
2024-05-20 10:18 pm NW 9.9 12.0----29.93- 81.7- 73.6---
2024-05-20 10:12 pm N 9.9 12.0 42.7---29.92- 81.7- 73.8-- 3.02
2024-05-20 10:06 pmNNW 8.9 13.0 42.7---29.92- 81.7- 73.6-- 2.99
2024-05-20 10:00 pmNNW 9.9 12.0 42.7---29.92+0.04 81.5- 73.0-- 2.95
2024-05-20 09:54 pm N 8.9 11.1 42.3---29.91- 81.7- 73.2-- 2.89
2024-05-20 09:48 pm N 8.9 12.0 42.3---29.91- 81.5- 73.2-- 2.85
2024-05-20 09:42 pmNNW 8.0 11.1 42.0---29.91- 81.3- 72.9-- 2.79
2024-05-20 09:36 pm NW 8.9 12.0 41.7---29.91- 81.3- 72.7-- 2.72
2024-05-20 09:30 pm N 8.9 13.0 41.7---29.91- 81.3- 73.2-- 2.66
2024-05-20 09:24 pm NW 8.9 11.1 41.3---29.91- 81.1- 73.0-- 2.59
2024-05-20 09:18 pm N 8.9 12.0 41.0---29.91- 81.3- 73.0-- 2.53
2024-05-20 09:12 pmNNW 8.9 9.9 41.0---29.91- 81.3- 72.7-- 2.46
2024-05-20 09:06 pm NW 9.9 12.0 40.7---29.90- 81.1- 72.3-- 2.40
2024-05-20 09:00 pmNNW 9.9 11.1 40.7---29.90+0.02 81.1- 72.3-- 2.36
2024-05-20 08:54 pm N 9.9 12.0 40.4---29.90- 81.3- 72.5-- 2.30
2024-05-20 08:48 pm N 9.9 12.0 40.0---29.90- 81.1- 72.7-- 2.23
2024-05-20 08:42 pm N 9.9 12.0 40.0---29.89- 81.1- 72.0-- 2.20
2024-05-20 08:36 pm N 9.9 12.0 39.7---29.89- 81.3- 72.5-- 2.13
2024-05-20 08:30 pm N 9.9 12.0 39.7---29.89- 81.3- 72.5-- 2.10
2024-05-20 08:24 pm N 8.9 12.0 39.4---29.89- 81.3- 72.3-- 2.03
2024-05-20 08:18 pm N 9.9 12.0 39.4---29.89- 81.1- 72.5-- 2.00
2024-05-20 08:12 pmNNW 9.9 13.0 39.0---29.89- 81.0- 72.1-- 1.94
2024-05-20 08:06 pm NW 8.9 11.1 39.0---29.88- 81.0- 72.1-- 1.90
2024-05-20 08:00 pmNNW 9.9 12.0 39.0---29.89+0.00 81.1- 72.0-- 1.87
2024-05-20 07:54 pmNNW 8.9 12.0 38.7---29.88- 81.3- 72.0-- 1.80
2024-05-20 07:48 pm N 8.9 11.1 38.7---29.88- 81.5- 72.0-- 1.77
2024-05-20 07:42 pm N 9.9 12.0 38.4---29.88- 81.5- 72.0-- 1.71
2024-05-20 07:36 pmNNW 9.9 11.1 38.4---29.88- 81.5- 71.8-- 1.67
2024-05-20 07:30 pmNNW 9.9 13.0 38.1---29.88- 81.1- 71.1-- 1.61
2024-05-20 07:24 pmNNW 9.9 12.0 38.1---29.88- 81.3- 71.1-- 1.57
2024-05-20 07:18 pmNNW 8.9 12.0 37.7---29.88- 81.5- 70.9-- 1.54
2024-05-20 07:12 pmNNW 8.0 11.1 37.7---29.88- 81.3- 70.2-- 1.51
2024-05-20 07:06 pmNNW 8.9 11.1 37.4---29.88- 81.3- 69.8-- 1.44
2024-05-20 07:00 pmNNW 8.9 11.1 37.4---29.87-0.04 81.3- 69.6-- 1.41
2024-05-20 06:54 pm NW 8.9 11.1 37.4---29.87- 81.1- 69.1-- 1.38
2024-05-20 06:48 pmWNW 8.9 11.1 37.4---29.88- 81.1- 68.4-- 1.38
2024-05-20 06:42 pm NW 8.9 11.1 37.1---29.87- 81.5- 69.3-- 1.35
2024-05-20 06:36 pm NW 9.9 11.1 37.1---29.87- 81.5- 68.7-- 1.31
2024-05-20 06:30 pmWNW 8.9 12.0 37.1---29.88- 81.5- 68.4-- 1.31
2024-05-20 06:24 pm NW 8.9 11.1 37.1---29.88- 81.7- 68.4-- 1.28
2024-05-20 06:18 pmWNW 8.0 9.9 36.7---29.88- 82.0- 67.8-- 1.25
2024-05-20 06:12 pm W 8.9 11.1 36.7---29.88- 82.4- 67.3-- 1.21
2024-05-20 06:06 pm W 8.9 11.1 36.7---29.88- 82.8- 67.3-- 1.21
2024-05-20 06:00 pmWSW 8.9 9.9 36.7---29.88-0.05 83.3- 66.4-- 1.18
2024-05-20 05:54 pmWNW 8.0 9.9 36.7---29.88- 83.3- 64.8-- 1.18
2024-05-20 05:48 pm W 8.0 9.9 36.7---29.88- 84.2- 65.5-- 1.21
2024-05-20 05:42 pm W 8.0 9.9 36.7---29.88- 84.0- 65.8-- 1.21
2024-05-20 05:36 pm W 8.9 9.9 36.7---29.88- 83.1- 67.1-- 1.25
2024-05-20 05:30 pm W 8.9 9.9 36.7---29.89- 82.9- 66.7-- 1.25
2024-05-20 05:24 pm W 8.9 11.1 37.1---29.89- 82.4- 66.7-- 1.28
2024-05-20 05:18 pmWNW 8.9 11.1 37.1---29.89- 82.4- 66.6-- 1.28
2024-05-20 05:12 pmWNW 8.9 11.1 37.1---29.89- 81.7- 66.7-- 1.31
2024-05-20 05:06 pmWNW 8.9 9.9 37.1---29.89- 81.5- 68.2-- 1.35
2024-05-20 05:00 pmWNW 8.9 9.9 37.1---29.89-0.05 81.7- 68.5-- 1.35
2024-05-20 04:54 pmWNW 8.9 11.1 37.4---29.89- 81.7- 68.9-- 1.38
2024-05-20 04:48 pm NW 8.9 11.1 37.4---29.90- 81.0- 68.7-- 1.41
2024-05-20 04:42 pm NW 8.9 11.1 37.4---29.90- 80.8- 68.9-- 1.44
2024-05-20 04:36 pm NW 8.9 11.1 37.7---29.90- 81.1- 69.3-- 1.51
2024-05-20 04:30 pmWNW 8.9 9.9 37.7---29.90- 80.4- 69.6-- 1.54
2024-05-20 04:24 pm NW 8.9 11.1 38.1---29.90- 81.0- 69.8-- 1.57
2024-05-20 04:18 pm N 9.9 11.1 38.1---29.91- 80.8- 69.8-- 1.61
2024-05-20 04:12 pmNNW 9.9 11.1 38.1---29.91- 80.6- 70.5-- 1.64
2024-05-20 04:06 pmNNW 9.9 12.0 38.4---29.92- 80.4- 70.9-- 1.67
2024-05-20 04:00 pmNNW 9.9 12.0 38.4---29.92-0.01 80.2- 70.7-- 1.71
2024-05-20 03:54 pm NW 9.9 12.0 38.7---29.92- 80.1- 71.2-- 1.77
2024-05-20 03:48 pm NW 11.1 13.0 38.7---29.91- 80.1- 71.2-- 1.80
2024-05-20 03:42 pmNNW 11.1 13.0 39.0---29.92- 80.6- 71.2-- 1.87
2024-05-20 03:36 pmNNW 9.9 12.0 39.0---29.92- 80.4- 71.6-- 1.90
2024-05-20 03:30 pm N 11.1 13.0 39.4---29.92- 80.2- 71.4-- 1.97
2024-05-20 03:24 pmNNW 11.1 13.0 39.4---29.92- 80.4- 72.0-- 2.03
2024-05-20 03:18 pm N 11.1 13.0 39.7---29.92- 80.1- 71.8-- 2.10
2024-05-20 03:12 pm N 9.9 13.0 40.0---29.92- 80.2- 72.1-- 2.17
2024-05-20 03:06 pm N 9.9 12.0 40.0---29.93- 80.1- 72.1-- 2.23
2024-05-20 03:00 pmNNW 9.9 13.0 40.4---29.93+0.00 79.7- 71.6-- 2.26
2024-05-20 02:54 pmNNW 9.9 12.0 40.4---29.93- 80.1- 71.1-- 2.33
2024-05-20 02:48 pmNNW 9.9 12.0 40.7---29.93- 80.1- 72.1-- 2.40
2024-05-20 02:42 pmNNW 9.9 11.1 41.0---29.93- 79.9- 71.2-- 2.46
2024-05-20 02:36 pmNNW 8.9 11.1 41.0---29.93- 80.2- 72.1-- 2.53
2024-05-20 02:30 pm W 8.9 11.1 41.3---29.93- 79.3- 71.1-- 2.59
2024-05-20 02:24 pm NW 8.9 11.1 41.7---29.94- 79.7- 71.4-- 2.66
2024-05-20 02:18 pm NW 8.9 11.1 41.7---29.94- 79.9- 72.0-- 2.69
2024-05-20 02:12 pm NW 8.9 11.1 41.7---29.94- 79.5- 71.2-- 2.72
2024-05-20 02:06 pmNNW 8.9 11.1 42.0---29.94- 79.9- 72.0-- 2.79
2024-05-20 02:00 pmNNW 8.9 11.1 42.3---29.94+0.01 80.1- 72.3-- 2.85
2024-05-20 01:54 pmNNW 9.9 11.1 42.3---29.94- 79.9- 72.5-- 2.92
2024-05-20 01:48 pmNNW 9.9 12.0 42.7---29.93- 79.9- 72.1-- 2.95
2024-05-20 01:42 pmNNW 9.9 12.0 42.7---29.94- 80.1- 72.7-- 3.02
2024-05-20 01:36 pmWNW 8.9 11.1 43.0---29.94- 79.7- 72.0-- 3.08
2024-05-20 01:30 pm NW 8.0 11.1 43.0---29.93- 79.7- 72.0-- 3.15
2024-05-20 01:24 pm NW 8.9 11.1 43.3---29.93- 80.1- 72.3-- 3.22
2024-05-20 01:18 pmNNW 8.9 11.1 43.6---29.93- 80.2- 72.3-- 3.28
2024-05-20 01:12 pm NW 8.9 11.1 43.6---29.93- 80.1- 71.4-- 3.31
2024-05-20 01:06 pm NW 8.9 11.1 44.0---29.93- 80.6- 72.0-- 3.38
2024-05-20 01:00 pm NW 8.9 11.1 44.0---29.93- 80.2- 71.2-- 3.41
2024-05-20 12:54 pmWNW 8.9 9.9 44.3---29.93- 80.4- 70.9-- 3.48
2024-05-20 12:48 pmWNW 8.0 9.9 44.3---29.93- 80.1- 70.9-- 3.51
2024-05-20 12:42 pmNNW 8.9 12.0 44.6---29.93- 80.8- 70.9-- 3.58
2024-05-20 12:36 pmNNW 8.0 11.1 44.6---29.93- 80.6- 70.7-- 3.58
2024-05-20 12:30 pmWNW 8.0 9.9 44.6---29.93- 80.6- 70.3-- 3.61
2024-05-20 12:24 pm W 8.0 9.9 44.6---29.93- 80.4- 70.5-- 3.64
2024-05-20 12:18 pm N 7.0 8.9 44.9---29.94- 81.1- 71.4-- 3.71
2024-05-20 12:12 pmNNW 7.0 8.9 44.9---29.93- 80.8- 71.2-- 3.74
2024-05-20 12:06 pmNNW 7.0 8.9 44.9---29.93- 80.8- 70.3-- 3.74
2024-05-20 12:00 pm N 8.0 9.9 45.3---29.93+0.03 81.0- 70.7-- 3.77
2024-05-20 11:54 am N 7.0 8.0 45.3---29.93- 81.3- 71.1-- 3.81
2024-05-20 11:48 am NW 8.0 8.9 45.3---29.93- 81.0- 70.3-- 3.84
2024-05-20 11:42 am N 8.9 11.1 45.3---29.93- 81.1- 70.0-- 3.81
2024-05-20 11:36 am N 8.0 11.1 45.3---29.93- 80.8- 70.9-- 3.81
2024-05-20 11:30 amNNW 8.0 9.9 45.3---29.93- 81.0- 71.2-- 3.81
2024-05-20 11:24 am N 8.0 9.9 45.3---29.92- 80.8- 71.1-- 3.77
2024-05-20 11:18 amNNW 7.0 8.9 45.3---29.92- 80.8- 70.9-- 3.81
2024-05-20 11:12 am NW 7.0 8.9 45.3---29.93- 80.6- 70.7-- 3.77
2024-05-20 11:06 am N 7.0 8.9 45.3---29.93- 80.8- 70.7-- 3.77
2024-05-20 11:00 am N 7.0 8.0 45.3---29.93+0.02 81.0- 70.3-- 3.77
2024-05-20 09:54 am N 5.1 7.0 45.3---29.92- 81.0- 67.6-- 3.81
2024-05-20 09:48 am N 6.0 8.0 45.3---29.92- 80.6- 68.7-- 3.77
2024-05-20 09:42 am N 7.0 8.0 44.9---29.92- 80.6- 68.4-- 3.74
2024-05-20 09:36 am N 7.0 8.0 44.9---29.91- 80.4- 67.8-- 3.74
2024-05-20 09:30 am N 7.0 8.9 44.9---29.91- 80.2- 68.7-- 3.71
2024-05-20 09:24 am N 8.0 11.1 44.9---29.91- 80.2- 69.3-- 3.71
2024-05-20 09:18 am N 8.9 9.9 44.9---29.91- 80.2- 68.9-- 3.71
2024-05-20 09:12 am N 8.0 11.1 44.9---29.91- 80.2- 68.9-- 3.67
2024-05-20 09:06 am N 8.0 8.9 44.6---29.91- 80.2- 69.3-- 3.64
2024-05-20 09:00 am N 8.9 9.9 44.6---29.90+0.02 80.2- 69.8-- 3.61
2024-05-20 08:54 am N 8.0 9.9 44.6---29.91- 80.1- 69.6-- 3.58